Jackson, MN

10:47 PM CDT on May 29, 2017 (GMT -0500)
Jackson Municipal

Weather History for KMJQ - December, 2012

Change the Weather History Date:

Wednesday, December 5, 2012

  Actual Average Record
Temperature  
Mean Temperature 30 °F -  
Max Temperature 44 °F 33 °F 60 °F (2001)
Min Temperature 17 °F 19 °F -5 °F (2005)
Degree Days  
Heating Degree Days 34    
Moisture  
Dew Point 20 °F    
Average Humidity 60    
Maximum Humidity 80    
Minimum Humidity 45    
Precipitation  
Precipitation 0.00 in - - ()
Sea Level Pressure  
Sea Level Pressure 30.08 in    
Wind  
Wind Speed 13 mph (SE)    
Max Wind Speed 28 mph    
Max Gust Speed 32 mph    
Visibility 10 miles    
Events      
Averages and records for this station are not official NWS values.
T = Trace of Precipitation, MM = Missing Value Source: NWS Daily Summary

Daily Weather History Graph

Daily Weather History Graph

Search for Another Location

Airport or City:

Trip Planner

Search our weather history database for the weather conditions in past years. The results will help you decide how hot, cold, wet, or windy it might be!

Date:

Astronomy

Dec. 05, 2012 Rise Set
Actual Time 7:38 AM CST 4:43 PM CST
Civil Twilight 7:05 AM CST 5:15 PM CST
Nautical Twilight 6:29 AM CST 5:51 PM CST
Astronomical Twilight 5:55 AM CST 6:26 PM CST
Moon 11:43 PM CST (12/5) 11:53 AM CST (12/5)
Length of Visible Light 10h 09m
Length of Day
9h 04m
Waning Gibbous, 59% of the Moon is Illuminated
Dec 5
Waning Gibbous
Dec 6
Last Quarter
Dec 13
New
Dec 19
First Quarter
Dec 28
Full

Hourly Weather History & Observations

Time (CST) Temp. Windchill Dew Point Humidity Pressure Visibility Wind Dir Wind Speed Gust Speed Precip Events Conditions
12:13 AM 17.6 °F 7.3 °F 10.4 °F 73% 30.35 in 10.0 mi ENE 8.1 mph - N/A   Clear
12:33 AM 19.4 °F 14.3 °F 12.2 °F 74% 30.36 in 10.0 mi NE 3.5 mph - N/A   Clear
12:53 AM 19.4 °F 11.5 °F 10.4 °F 68% 30.34 in 10.0 mi East 5.8 mph - N/A   Clear
1:13 AM 19.4 °F 11.5 °F 12.2 °F 74% 30.34 in 10.0 mi East 5.8 mph - N/A   Clear
1:53 AM 17.6 °F 8.2 °F 12.2 °F 79% 30.32 in 10.0 mi East 6.9 mph - N/A   Clear
2:13 AM 19.4 °F 12.8 °F 12.2 °F 74% 30.32 in 10.0 mi ESE 4.6 mph - N/A   Clear
2:33 AM 19.4 °F 11.5 °F 12.2 °F 74% 30.32 in 10.0 mi East 5.8 mph - N/A   Clear
2:53 AM 19.4 °F 11.5 °F 12.2 °F 74% 30.33 in 10.0 mi East 5.8 mph - N/A   Clear
3:13 AM 19.4 °F 11.5 °F 12.2 °F 74% 30.33 in 10.0 mi ESE 5.8 mph - N/A   Clear
3:33 AM 19.4 °F 11.5 °F 12.2 °F 74% 30.33 in 10.0 mi SE 5.8 mph - N/A   Clear
3:53 AM 19.4 °F 11.5 °F 12.2 °F 74% 30.32 in 10.0 mi ESE 5.8 mph - N/A   Clear
4:13 AM 19.4 °F 10.4 °F 12.2 °F 74% 30.30 in 10.0 mi ESE 6.9 mph - N/A   Clear
4:33 AM 19.4 °F 12.8 °F 12.2 °F 74% 30.31 in 10.0 mi ESE 4.6 mph - N/A   Clear
4:53 AM 19.4 °F 11.5 °F 12.2 °F 74% 30.30 in 10.0 mi SE 5.8 mph - N/A   Clear
5:13 AM 19.4 °F 10.4 °F 14.0 °F 80% 30.30 in 10.0 mi SE 6.9 mph - N/A   Clear
5:33 AM 21.2 °F 9.5 °F 14.0 °F 74% 30.28 in 10.0 mi SE 11.5 mph - N/A   Clear
5:53 AM 23.0 °F 11.7 °F 14.0 °F 68% 30.28 in 10.0 mi SE 11.5 mph - N/A   Clear
6:13 AM 21.2 °F 8.3 °F 12.2 °F 68% 30.27 in 10.0 mi SE 13.8 mph - N/A   Clear
6:33 AM 21.2 °F 8.9 °F 14.0 °F 74% 30.27 in 10.0 mi SE 12.7 mph - N/A   Clear
6:53 AM 21.2 °F 10.9 °F 14.0 °F 74% 30.27 in 10.0 mi SSE 9.2 mph - N/A   Clear
8:34 AM 23.0 °F 10.6 °F 14.0 °F 68% 30.24 in 10.0 mi SE 13.8 mph 19.6 mph N/A   Clear
8:53 AM 23.0 °F 9.6 °F 14.0 °F 68% 30.24 in 10.0 mi SSE 16.1 mph 20.7 mph N/A   Clear
9:13 AM 26.6 °F 13.4 °F 14.0 °F 59% 30.23 in 10.0 mi SSE 18.4 mph - N/A   Clear
9:33 AM 28.4 °F 15.1 °F 14.0 °F 55% 30.22 in 10.0 mi SSE 20.7 mph 27.6 mph N/A   Clear
9:53 AM 28.4 °F 16.2 °F 15.8 °F 59% 30.21 in 10.0 mi SSE 17.3 mph - N/A   Clear
10:13 AM 30.2 °F 19.3 °F 15.8 °F 55% 30.20 in 10.0 mi SSE 15.0 mph 21.9 mph N/A   Clear
10:34 AM 32.0 °F 21.2 °F 17.6 °F 55% 30.20 in 10.0 mi SSE 16.1 mph 20.7 mph N/A   Clear
10:53 AM 32.0 °F 20.5 °F 17.6 °F 55% 30.18 in 10.0 mi SSE 18.4 mph 25.3 mph N/A   Clear
11:13 AM 33.8 °F 23.9 °F 17.6 °F 52% 30.15 in 10.0 mi SSE 15.0 mph 23.0 mph N/A   Clear
11:34 AM 33.8 °F 22.5 °F 19.4 °F 56% 30.14 in 10.0 mi SSE 19.6 mph 25.3 mph N/A   Clear
11:53 AM 35.6 °F 24.5 °F 19.4 °F 52% 30.12 in 10.0 mi SSE 20.7 mph 28.8 mph N/A   Clear
12:13 PM 37.4 °F 27.2 °F 21.2 °F 52% 30.11 in 10.0 mi SSE 19.6 mph 25.3 mph N/A   Clear
12:34 PM 37.4 °F 27.5 °F 21.2 °F 52% 30.09 in 10.0 mi SSE 18.4 mph 27.6 mph N/A   Clear
12:53 PM 37.4 °F 27.2 °F 21.2 °F 52% 30.08 in 10.0 mi SSE 19.6 mph 25.3 mph N/A   Clear
1:13 PM 37.4 °F 27.8 °F 21.2 °F 52% 30.06 in 10.0 mi South 17.3 mph 24.2 mph N/A   Clear
1:33 PM 39.2 °F 29.6 °F 21.2 °F 49% 30.05 in 10.0 mi SSE 19.6 mph 25.3 mph N/A   Clear
1:53 PM 41.0 °F 31.4 °F 21.2 °F 45% 30.03 in 10.0 mi SSE 21.9 mph 27.6 mph N/A   Clear
2:13 PM 41.0 °F 31.6 °F 23.0 °F 49% 30.01 in 10.0 mi SSE 20.7 mph - N/A   Clear
2:33 PM 41.0 °F 31.6 °F 23.0 °F 49% 29.99 in 10.0 mi SSE 20.7 mph 28.8 mph N/A   Clear
2:53 PM 42.8 °F 33.8 °F 23.0 °F 46% 29.98 in 10.0 mi SSE 21.9 mph 27.6 mph N/A   Clear
3:13 PM 42.8 °F 35.1 °F 23.0 °F 46% 29.97 in 10.0 mi SSE 16.1 mph 25.3 mph N/A   Clear
3:33 PM 42.8 °F 33.8 °F 23.0 °F 46% 29.96 in 10.0 mi SSE 21.9 mph 25.3 mph N/A   Clear
3:53 PM 42.8 °F 34.0 °F 23.0 °F 46% 29.95 in 10.0 mi SSE 20.7 mph 25.3 mph N/A   Clear
4:13 PM 42.8 °F 35.1 °F 23.0 °F 46% 29.94 in 10.0 mi SSE 16.1 mph 25.3 mph N/A   Clear
4:33 PM 42.8 °F 34.5 °F 23.0 °F 46% 29.93 in 10.0 mi SSE 18.4 mph 26.5 mph N/A   Clear
4:53 PM 42.8 °F 35.4 °F 24.8 °F 49% 29.92 in 10.0 mi SSE 15.0 mph 24.2 mph N/A   Clear
5:13 PM 42.8 °F 33.8 °F 24.8 °F 49% 29.91 in 10.0 mi SSE 21.9 mph 27.6 mph N/A   Clear
5:33 PM 42.8 °F 34.0 °F 24.8 °F 49% 29.91 in 10.0 mi SSE 20.7 mph 29.9 mph N/A   Clear
5:53 PM 42.8 °F 34.5 °F 26.6 °F 53% 29.91 in 10.0 mi SSE 18.4 mph 26.5 mph N/A   Clear
6:13 PM 42.8 °F 34.5 °F 26.6 °F 53% 29.91 in 10.0 mi South 18.4 mph 27.6 mph N/A   Scattered Clouds
6:33 PM 42.8 °F 35.1 °F 26.6 °F 53% 29.90 in 10.0 mi SSE 16.1 mph 28.8 mph N/A   Scattered Clouds
6:53 PM 42.8 °F 34.0 °F 26.6 °F 53% 29.89 in 10.0 mi SSE 20.7 mph 28.8 mph N/A   Clear
7:13 PM 42.8 °F 34.0 °F 26.6 °F 53% 29.89 in 10.0 mi SSE 20.7 mph 27.6 mph N/A   Scattered Clouds
7:33 PM 42.8 °F 34.0 °F 28.4 °F 57% 29.88 in 10.0 mi SSE 20.7 mph 29.9 mph N/A   Mostly Cloudy
7:53 PM 42.8 °F 33.5 °F 28.4 °F 57% 29.88 in 10.0 mi South 23.0 mph 32.2 mph N/A   Mostly Cloudy
8:13 PM 42.8 °F 33.5 °F 28.4 °F 57% 29.87 in 10.0 mi SSE 23.0 mph 29.9 mph N/A   Scattered Clouds
8:33 PM 42.8 °F 33.8 °F 28.4 °F 57% 29.86 in 10.0 mi SSE 21.9 mph 29.9 mph N/A   Scattered Clouds
8:53 PM 42.8 °F 34.0 °F 28.4 °F 57% 29.85 in 10.0 mi South 20.7 mph 28.8 mph N/A   Scattered Clouds
9:14 PM 42.8 °F 32.7 °F 30.2 °F 61% 29.85 in 10.0 mi South 27.6 mph 32.2 mph N/A   Scattered Clouds
9:33 PM 42.8 °F 33.5 °F 30.2 °F 61% 29.85 in 10.0 mi South 23.0 mph 31.1 mph N/A   Scattered Clouds
9:53 PM 42.8 °F 34.3 °F 30.2 °F 61% 29.84 in 10.0 mi South 19.6 mph 27.6 mph N/A   Mostly Cloudy
10:14 PM 44.6 °F 36.1 °F 30.2 °F 57% 29.84 in 10.0 mi South 21.9 mph 29.9 mph N/A   Mostly Cloudy
10:33 PM 44.6 °F 36.1 °F 30.2 °F 57% 29.82 in 10.0 mi South 21.9 mph 31.1 mph N/A   Mostly Cloudy
10:53 PM 44.6 °F 36.6 °F 30.2 °F 57% 29.82 in 10.0 mi South 19.6 mph 28.8 mph N/A   Scattered Clouds
11:14 PM 44.6 °F 36.4 °F 30.2 °F 57% 29.81 in 10.0 mi South 20.7 mph 29.9 mph N/A   Overcast
11:33 PM 44.6 °F 36.4 °F 30.2 °F 57% 29.81 in 10.0 mi South 20.7 mph 27.6 mph N/A   Overcast
11:53 PM 44.6 °F 36.4 °F 28.4 °F 53% 29.80 in 10.0 mi South 20.7 mph 27.6 mph N/A   Overcast